Wind_Speed
35 35 36 36 36 36 36 36 37 38 37 37 37 36 36 35 34 33 32 32 31 30 29 29 29 28 29 29 28 27 26 25 24 23 22 23 25 27 29 31 32 33 33 33 34 34 35 35 36 36 36 36 35 34 34 34 33 31 28 26 24 23 21 19 19 19 20 20 20 20 22 25 27 28 28 29 30 29 29 30 30 29 29 29 30 30 29 29
35 36 37 37 38 38 38 38 38 39 40 39 39 39 38 38 37 36 35 34 33 32 32 31 30 30 30 30 29 29 28 26 25 24 23 23 25 26 28 30 32 33 34 34 35 35 35 35 35 35 36 36 36 35 35 35 34 32 29 26 24 22 21 20 19 18 19 19 19 19 20 22 25 26 27 29 30 30 30 30 29 29 29 29 29 28 28 29
36 37 38 39 39 40 40 40 40 41 41 41 41 41 40 40 39 39 38 37 36 35 34 33 32 32 31 31 30 30 29 27 26 25 24 24 25 27 28 30 32 33 35 35 35 36 35 35 34 34 35 36 36 35 35 35 35 34 31 28 26 23 21 20 19 19 19 19 19 19 18 20 22 24 26 28 29 30 30 29 29 29 29 29 28 27 28 31
37 38 39 40 40 41 42 42 42 43 43 43 43 43 42 42 42 41 40 40 39 38 36 35 34 34 33 33 32 31 30 28 27 26 26 26 26 28 28 29 31 33 35 36 36 36 36 35 35 34 34 35 35 35 34 35 35 35 33 30 28 26 23 21 19 19 19 19 20 20 18 18 19 22 24 26 27 29 29 29 29 29 30 29 29 29 30 33
38 39 40 41 41 42 43 43 44 44 45 45 45 45 45 44 44 43 43 42 41 40 39 37 36 36 35 34 33 32 30 30 29 28 27 27 28 28 29 30 31 33 35 36 37 37 36 36 36 36 35 36 35 34 33 33 34 34 33 31 29 27 26 24 21 19 19 19 21 20 19 18 18 20 22 24 25 27 28 29 30 30 31 30 30 31 32 35
40 41 41 42 42 43 44 45 45 46 46 47 47 47 47 46 46 45 45 44 43 42 41 40 38 37 36 35 34 33 32 31 30 29 28 28 29 29 30 31 31 33 35 36 37 37 37 37 37 36 37 37 36 34 32 31 32 33 32 32 30 29 27 26 24 21 20 21 22 22 21 20 20 20 22 23 25 27 29 30 30 31 32 32 33 33 34 36
41 42 42 43 43 44 44 45 46 47 48 48 49 48 48 48 48 47 46 46 45 44 43 41 40 38 37 36 35 34 33 32 31 30 30 29 30 30 31 31 32 33 34 36 37 37 36 37 37 37 38 38 37 35 32 31 31 32 32 31 30 30 28 27 25 24 22 22 23 24 24 23 23 23 24 25 26 28 29 30 31 32 33 34 35 35 36 37
42 43 43 44 44 44 45 46 47 48 48 49 50 50 50 50 49 49 48 47 47 46 44 43 42 40 38 37 36 35 34 33 32 31 31 31 31 31 32 32 32 33 34 36 37 37 36 37 37 37 38 38 37 35 33 32 33 32 32 31 30 29 29 28 27 26 25 25 25 26 27 26 25 26 27 28 29 30 31 31 32 33 35 35 36 37 37 38
42 43 44 44 44 45 45 46 47 48 49 50 51 52 52 51 51 50 49 48 48 47 46 44 43 41 40 39 37 36 35 34 33 33 32 32 32 33 33 33 33 33 35 37 38 37 37 37 36 36 38 38 37 35 34 34 34 33 33 32 31 30 28 28 28 28 27 27 28 29 30 29 28 28 30 31 32 33 33 33 34 35 36 37 38 38 38 38
42 43 44 44 44 45 45 46 47 48 49 51 52 53 53 53 53 52 51 50 49 48 47 46 44 43 41 40 39 37 36 35 34 34 34 33 33 34 34 34 34 34 35 37 38 38 38 38 37 36 36 37 36 34 34 35 35 35 34 33 33 31 30 29 28 28 28 29 30 31 33 32 31 31 33 35 36 37 37 37 37 38 39 40 40 38 36 36
43 43 44 44 44 45 45 46 47 48 49 50 52 53 54 54 55 54 53 51 50 49 49 48 46 45 43 42 40 39 38 37 36 35 35 35 34 35 35 35 35 35 36 37 39 39 39 39 37 36 36 36 35 34 34 35 35 35 35 35 34 33 32 31 30 30 29 30 30 32 35 34 32 33 35 37 38 39 40 40 40 41 42 42 40 38 36 36
44 44 45 45 45 45 45 46 46 47 48 49 51 53 54 55 56 56 55 53 52 51 50 49 48 46 45 44 42 40 39 38 37 37 36 36 35 36 37 36 36 36 37 38 39 40 41 40 39 38 36 36 34 33 33 35 35 35 35 35 35 34 33 32 31 30 29 29 30 31 35 35 32 33 34 35 36 37 38 39 41 42 42 42 41 39 38 39
43 44 45 46 46 46 46 46 46 47 47 48 50 52 54 55 56 57 57 56 54 53 51 50 49 48 47 46 44 42 41 40 39 38 38 37 37 37 37 38 38 38 38 38 39 40 41 42 41 39 38 37 35 34 33 34 34 34 35 35 36 35 34 33 32 31 30 29 29 30 33 35 32 32 33 34 34 35 37 38 39 40 40 41 41 41 41 43
42 43 45 46 47 47 47 47 47 47 48 48 49 50 53 54 55 56 57 57 56 55 53 51 50 49 48 48 46 44 42 41 41 40 39 39 38 38 38 39 39 39 39 39 40 41 42 43 42 41 39 38 37 35 34 33 33 33 34 34 35 36 35 34 33 33 32 30 30 29 32 34 33 32 33 34 35 35 37 38 38 40 41 42 44 44 45 46
39 41 43 45 46 47 48 48 48 48 48 49 49 49 51 53 54 55 56 57 57 56 55 53 52 50 50 50 47 46 44 43 42 42 41 40 40 39 39 39 40 41 41 41 41 42 43 43 43 42 40 39 39 38 36 34 33 33 33 33 34 35 35 34 34 33 32 31 30 29 31 34 34 33 33 33 35 36 38 39 40 42 44 45 46 46 46 46
37 39 40 42 44 46 47 48 49 49 49 49 49 49 50 51 53 54 55 56 56 56 55 55 53 51 51 51 49 47 46 44 44 43 43 42 42 41 40 40 41 42 43 42 43 44 45 44 43 43 42 41 41 40 38 36 34 33 33 33 34 34 34 34 34 33 32 32 30 29 30 33 33 33 33 34 35 38 40 41 42 44 45 46 47 46 46 46
36 37 38 40 41 44 46 48 49 49 49 50 49 49 49 50 51 52 53 54 55 55 54 55 54 52 53 52 51 49 47 47 46 45 44 44 43 42 41 41 42 44 45 45 45 45 46 45 44 44 43 41 42 42 40 38 36 35 34 35 35 35 34 34 34 33 32 33 32 30 30 33 33 32 33 34 36 39 41 42 43 44 45 46 47 47 47 48
36 37 38 38 39 41 44 46 47 49 49 49 49 49 49 49 50 51 51 53 54 54 53 54 53 53 54 53 52 51 49 48 48 47 46 45 44 44 43 43 43 45 46 47 47 47 47 47 45 45 44 42 42 43 42 40 39 37 36 36 37 37 36 35 34 33 31 32 33 31 29 34 36 35 34 35 39 41 43 43 43 44 46 47 48 49 49 50
37 37 37 38 39 40 42 43 45 47 49 49 48 49 48 48 49 49 50 51 52 53 53 53 53 53 53 54 53 53 51 50 49 48 48 47 46 46 45 45 45 46 48 48 49 48 48 48 47 46 46 44 43 45 44 42 40 39 38 38 38 37 38 38 35 33 30 29 33 31 29 34 39 39 38 39 42 44 45 45 45 46 48 49 49 49 50 52
38 38 38 38 38 39 41 42 43 45 47 48 48 48 48 47 47 46 47 49 50 51 52 51 52 53 53 54 54 53 53 52 51 50 49 48 48 47 47 47 47 48 49 50 50 50 49 49 48 47 47 45 45 45 45 43 42 41 39 39 39 38 38 40 38 35 31 28 32 32 28 33 40 43 44 44 45 47 48 48 49 50 50 50 50 50 51 53
41 40 39 39 39 39 40 41 41 42 45 47 48 48 48 47 45 44 45 47 48 49 51 50 50 52 52 53 54 54 53 53 53 52 51 50 50 49 49 49 49 50 50 51 51 51 50 49 48 48 47 46 46 46 45 44 43 43 41 39 40 39 39 40 40 37 33 28 30 32 29 33 42 47 49 49 49 51 51 51 52 52 52 52 53 53 54 55
44 43 42 42 41 41 41 40 41 41 43 46 48 47 47 47 45 44 43 45 47 47 49 49 49 50 51 52 54 54 54 55 54 53 53 52 51 51 51 51 51 52 52 52 51 51 51 50 49 49 48 48 48 48 46 44 44 45 43 41 41 42 40 41 42 39 36 31 31 34 31 34 43 48 52 52 52 55 54 54 55 55 56 56 56 57 57 58
48 47 46 46 45 44 43 42 42 41 42 44 46 46 46 46 45 45 43 43 45 47 47 48 48 48 50 52 54 55 56 57 55 55 55 53 54 53 53 54 53 53 53 52 51 51 52 51 50 50 50 49 49 49 47 45 46 47 46 44 43 45 42 41 43 41 39 36 34 36 33 33 40 47 55 56 55 59 57 57 59 59 61 60 59 60 60 61
51 50 50 50 49 47 46 45 44 43 43 44 45 45 45 45 45 45 45 42 43 46 48 47 47 47 49 52 55 56 56 56 56 57 56 55 56 55 55 56 55 54 53 52 51 51 53 53 50 51 51 50 50 51 50 47 48 49 50 48 46 48 47 44 43 41 41 40 40 42 33 29 36 44 54 58 59 63 60 60 64 64 65 64 62 62 63 64
54 53 53 53 52 50 49 48 47 47 46 45 45 44 44 44 45 45 45 42 40 45 48 47 46 48 50 53 56 56 56 56 57 57 57 57 57 56 57 57 55 55 54 53 53 52 54 54 51 51 51 52 52 53 52 50 49 51 53 52 49 50 50 48 48 44 42 41 43 50 39 25 32 42 51 57 61 64 63 64 69 69 68 67 65 65 66 66
56 56 56 55 55 53 52 50 50 50 49 48 46 45 44 44 44 44 45 43 38 42 48 46 46 49 51 56 57 56 56 56 57 57 58 58 58 57 57 57 57 56 55 55 54 53 54 54 53 53 52 53 54 55 55 54 52 53 55 56 53 54 52 52 52 49 47 43 42 56 51 27 26 40 51 58 64 65 65 67 72 73 72 70 68 68 67 66
59 58 58 57 57 56 55 53 54 53 52 51 49 48 46 44 44 44 45 42 36 40 46 47 48 51 53 57 58 57 56 56 57 57 58 58 58 58 58 58 58 57 56 56 54 54 55 54 54 55 54 56 57 58 59 58 56 55 57 58 57 57 55 55 56 53 53 47 43 59 61 37 27 39 52 60 65 66 67 71 74 75 74 72 70 70 69 68
61 61 61 60 59 59 58 57 56 56 55 53 52 51 49 47 45 44 45 41 34 37 45 48 51 52 54 57 58 57 57 57 58 57 58 59 59 59 59 59 59 58 58 58 55 55 56 55 56 57 57 59 61 61 61 60 58 57 59 60 60 59 59 59 58 57 58 52 49 61 65 49 36 42 54 62 65 66 68 73 76 76 76 74 72 71 70 69
62 62 63 62 61 61 61 60 59 60 59 56 55 54 52 50 47 45 45 40 34 36 44 50 52 53 56 57 57 57 57 58 59 58 59 61 61 61 60 60 60 60 60 59 57 57 58 57 58 59 60 62 63 63 62 62 60 60 61 61 62 61 61 62 61 61 62 56 55 62 64 57 44 45 58 64 65 68 71 76 78 77 77 75 74 73 71 69
62 63 64 63 62 63 63 63 62 62 62 61 59 57 56 53 50 49 45 39 37 40 45 49 52 55 57 58 58 58 58 59 60 60 61 62 61 60 60 61 62 62 62 60 59 60 60 59 60 62 63 63 64 63 63 63 62 62 63 63 65 64 64 65 64 65 65 60 61 64 64 62 53 51 60 63 65 70 74 78 80 78 77 76 75 74 71 71
61 63 63 63 63 64 65 65 65 65 64 63 63 61 59 56 53 50 45 42 44 45 47 50 53 55 57 58 58 59 59 60 60 61 61 61 60 59 60 62 64 64 63 62 62 62 61 61 62 64 65 65 64 64 64 64 64 65 65 66 67 67 68 67 66 69 69 64 65 66 65 64 59 58 62 64 67 72 77 81 81 78 77 75 74 73 72 73
60 61 62 63 63 65 66 67 67 67 66 66 66 64 62 59 54 49 47 49 51 49 50 54 55 55 56 56 57 58 59 59 60 61 61 61 60 60 62 64 66 67 65 64 66 64 62 62 64 65 66 66 65 65 66 66 67 67 68 70 71 71 72 70 69 71 70 68 68 68 67 64 61 62 65 65 67 73 79 82 81 78 75 74 73 72 72 73
60 61 62 62 63 65 67 68 68 68 68 69 68 66 64 59 50 48 52 55 56 55 56 58 57 57 57 57 58 59 59 59 60 62 62 61 61 62 64 66 68 70 69 68 68 66 64 62 64 67 67 67 67 67 68 69 70 70 71 74 74 76 77 73 72 73 71 69 69 71 70 66 62 62 64 65 68 74 79 83 82 77 73 73 72 72 72 73
63 63 63 62 63 65 68 69 69 69 70 70 69 68 65 56 49 51 57 59 60 61 60 61 61 61 60 60 61 61 62 63 63 64 64 64 63 64 65 67 70 73 73 73 71 69 66 61 63 68 68 67 68 69 71 71 72 73 74 76 77 79 82 79 77 76 73 70 69 72 72 67 63 63 64 66 70 75 79 82 81 76 73 74 74 73 73 74
66 66 66 65 65 67 69 70 69 70 71 70 70 67 60 54 54 58 60 62 65 65 64 65 65 64 63 63 64 65 66 66 66 66 66 65 65 65 66 69 72 75 76 77 76 73 69 64 65 69 69 69 70 71 73 74 75 76 77 79 79 81 84 84 82 79 77 74 68 69 71 66 63 64 65 68 72 74 78 79 79 76 75 77 76 75 76 77
70 69 68 67 68 71 73 72 71 72 72 72 70 62 53 53 59 62 63 65 67 68 69 70 68 67 66 65 66 67 69 70 69 69 68 68 68 67 68 71 74 76 78 80 80 77 74 70 69 72 72 71 73 74 75 76 78 80 79 79 80 81 83 84 83 79 79 78 70 68 69 64 61 63 64 68 71 73 76 79 79 78 78 80 80 79 78 79
75 73 71 70 72 76 77 75 75 74 74 74 69 58 52 54 58 62 66 69 71 72 73 72 70 70 70 69 69 71 73 73 72 72 72 72 71 69 70 73 75 77 79 82 83 81 79 76 73 74 74 74 75 76 76 78 81 82 80 78 78 79 81 83 83 80 80 81 73 66 68 65 62 64 64 67 73 75 77 81 81 80 82 84 83 81 81 82
79 77 75 73 76 80 81 79 79 77 77 75 67 57 56 58 58 62 67 70 73 75 76 75 74 74 73 72 72 73 76 75 75 76 76 76 74 71 72 75 76 78 80 84 84 83 84 82 77 76 77 77 77 77 78 80 83 82 78 76 77 78 80 82 83 81 81 83 77 69 67 64 63 67 69 72 77 77 78 82 82 83 85 86 84 83 84 86
83 81 78 78 82 85 85 84 83 81 79 74 66 62 61 61 61 64 68 71 73 74 74 75 76 77 76 75 75 76 77 77 77 79 79 78 76 74 75 78 79 80 82 85 87 86 88 87 82 79 79 79 78 79 81 82 82 79 76 75 77 79 81 82 82 82 83 85 82 76 71 63 62 69 72 75 78 78 81 84 85 86 88 87 86 87 89 91
85 84 81 82 88 91 90 90 87 84 81 75 69 67 66 64 64 67 70 73 74 74 73 73 75 76 76 76 78 79 81 81 81 82 81 79 78 77 78 81 82 85 86 88 89 90 92 93 89 83 81 80 80 81 82 81 80 78 76 77 78 80 83 83 82 82 84 86 85 85 80 67 63 71 76 77 79 80 85 88 88 89 90 90 92 94 96 97
89 88 85 86 93 96 96 96 92 87 84 79 75 73 72 71 70 69 71 74 75 75 75 74 74 74 74 76 78 79 82 82 81 82 81 80 80 80 81 84 87 89 90 92 94 94 96 97 93 86 83 81 80 80 79 78 78 79 79 79 80 82 84 85 85 82 84 87 86 91 90 72 66 76 79 78 81 84 88 89 89 91 93 93 95 96 98 99
94 91 89 92 97 99 101 100 95 91 88 83 80 79 79 77 74 73 73 75 76 77 77 77 76 76 76 77 78 79 81 80 78 78 78 77 78 81 83 86 89 91 92 94 95 97 99 98 92 86 83 80 78 77 77 77 79 81 82 81 82 84 85 87 88 85 86 86 85 95 96 76 71 82 82 80 86 89 91 92 90 91 91 92 95 96 98 98
98 95 94 97 100 102 103 101 96 93 90 86 85 84 83 82 79 78 77 78 79 79 80 80 79 79 79 79 80 81 81 80 78 76 77 78 78 80 84 86 88 90 92 94 95 97 97 95 90 86 82 79 77 76 76 79 82 84 82 81 83 85 86 88 89 89 88 85 88 100 95 78 79 89 86 86 92 94 95 93 90 89 90 92 95 97 97 99
102 101 100 100 102 103 103 99 97 97 94 90 89 87 85 85 82 80 79 81 83 83 83 82 80 81 81 81 82 81 81 82 80 79 81 82 80 81 84 87 88 90 93 94 96 97 96 92 90 86 82 79 76 76 78 82 86 85 82 82 85 85 87 88 89 91 90 86 94 103 92 82 88 92 89 91 96 97 96 94 90 90 92 95 98 98 99 101
107 106 104 103 105 106 103 99 99 100 99 97 95 92 90 87 83 80 81 83 86 87 86 84 83 84 84 83 83 82 82 84 85 84 84 83 81 82 85 89 91 92 95 95 96 95 94 91 88 86 83 80 77 78 82 86 88 86 83 84 86 86 88 89 91 93 92 93 99 99 92 91 93 92 93 96 99 98 96 93 94 95 98 100 100 101 103 105
112 111 107 106 107 108 106 103 103 102 101 101 101 100 97 92 87 85 86 84 84 87 89 89 88 88 86 84 84 85 85 87 89 89 86 84 84 85 88 92 94 96 96 96 95 95 94 92 88 86 87 85 82 82 86 89 89 88 86 86 87 87 89 90 92 94 96 101 101 94 95 100 93 91 99 102 100 98 95 95 98 100 102 104 104 105 106 107
117 114 110 109 111 111 108 105 105 105 103 104 105 104 101 96 92 90 89 86 85 87 89 89 90 90 87 87 88 90 90 91 93 91 87 86 88 91 94 96 98 98 97 97 97 97 97 94 89 88 91 89 87 86 89 92 92 90 89 87 88 89 89 90 94 95 98 104 101 93 98 101 91 92 104 106 101 100 98 98 101 103 105 106 106 108 109 109
122 119 115 114 115 114 111 107 107 108 109 109 108 105 101 97 93 90 89 89 90 91 90 89 89 88 88 89 93 94 94 94 92 89 87 90 93 95 99 100 100 99 98 99 99 98 99 96 90 91 94 92 90 89 91 94 94 92 89 87 88 89 88 91 95 96 98 103 101 96 99 98 93 97 106 106 105 105 103 104 106 106 108 109 109 111 112 113
127 124 122 121 119 117 115 113 112 113 113 113 112 108 103 98 94 93 94 96 97 96 96 95 92 89 90 93 97 97 94 89 86 85 89 94 98 100 103 102 100 99 99 99 98 99 101 98 93 94 96 94 91 91 94 96 96 94 90 85 87 90 91 95 97 96 100 103 101 101 102 99 98 104 109 109 110 111 110 110 111 111 112 113 113 115 116 118
130 128 127 128 127 125 123 121 121 120 118 117 117 113 106 101 99 100 102 103 103 101 101 99 94 92 95 99 101 99 92 87 87 90 94 99 102 103 103 101 99 98 98 97 97 99 101 98 94 96 99 95 92 94 98 97 97 98 90 81 87 96 97 96 96 97 101 103 103 105 107 104 104 109 113 113 115 116 114 113 114 115 116 116 117 118 120 121
133 131 131 131 131 131 130 129 129 127 124 123 120 114 110 107 105 106 109 109 106 104 103 102 99 99 102 105 103 97 91 91 96 98 100 103 104 104 104 102 100 98 98 97 98 99 100 98 97 100 102 98 94 97 100 99 102 101 88 81 90 99 96 94 97 100 103 105 108 110 111 109 109 112 115 116 116 114 113 115 117 118 118 119 120 121 122 123
137 136 135 134 134 134 134 133 134 133 130 127 123 119 118 115 112 113 114 111 107 105 105 106 104 105 107 105 101 96 95 99 103 104 104 106 107 106 105 103 101 100 100 100 100 100 100 101 102 105 107 103 100 101 102 103 106 98 86 85 92 94 94 97 102 104 105 110 113 113 112 112 113 115 115 114 112 113 115 118 120 121 121 122 123 123 123 122
Wind_Direction
255 255 253 252 250 248 246 244 243 242 242 244 247 250 251 253 253 253 254 255 257 259 261 264 266 268 271 273 277 281 285 290 294 298 302 306 310 314 317 319 320 321 323 326 328 330 332 335 337 337 336 335 333 332 333 335 338 339 341 341 342 345 345 340 332 325 319 314 311 309 305 299 294 295 298 299 302 307 310 314 318 320 322 323 324 326 327 329
254 254 253 253 252 251 249 247 245 243 243 243 245 248 250 251 252 253 253 254 255 256 258 261 263 266 268 271 274 278 282 286 290 294 297 301 305 310 314 317 319 320 322 323 326 328 330 332 334 334 335 334 331 329 328 330 333 335 337 338 341 343 345 343 338 331 324 318 314 312 309 303 297 295 295 296 300 306 312 315 317 319 320 321 322 325 328 330
253 253 253 253 253 253 252 249 247 245 243 243 244 246 248 249 251 252 253 254 254 254 256 258 261 264 266 269 272 276 279 283 287 290 294 297 302 307 311 314 316 318 320 321 323 325 326 328 330 332 333 332 330 326 325 326 328 330 332 333 336 339 341 342 339 334 327 320 317 318 316 308 302 300 298 298 301 308 313 315 316 318 319 319 320 322 326 329
253 252 252 253 253 254 253 252 250 247 245 244 244 245 246 247 249 250 252 253 254 254 255 256 259 262 264 267 270 273 276 279 283 287 290 294 298 303 307 311 313 315 317 319 321 323 324 325 327 330 331 331 329 325 322 323 324 325 326 328 329 332 335 338 338 334 328 323 321 324 324 316 309 305 303 304 306 310 313 314 316 316 316 316 317 319 322 325
252 252 252 252 253 254 254 254 252 250 247 245 244 245 245 246 247 249 250 252 253 254 254 255 257 259 262 265 268 270 273 276 280 283 287 291 295 299 304 308 310 312 315 317 319 321 323 324 326 327 329 329 328 325 321 320 321 321 321 322 323 325 328 331 333 332 329 326 325 327 328 325 319 313 309 308 309 311 312 313 314 313 313 313 313 315 318 321
252 252 252 253 253 254 254 255 254 252 250 247 245 245 246 246 247 247 249 250 252 253 254 255 256 257 260 263 266 269 271 274 277 281 284 288 292 296 301 305 307 310 312 314 316 319 321 323 324 324 326 328 327 324 320 318 317 317 317 317 318 319 321 323 326 327 326 325 324 324 325 324 322 316 312 310 309 309 309 310 310 309 309 309 310 312 314 316
253 253 253 253 254 254 255 255 255 254 252 250 248 247 246 247 247 248 248 250 252 253 255 256 256 257 259 261 263 266 269 271 274 277 281 285 289 293 297 301 305 307 310 311 313 316 318 320 322 323 325 326 326 323 320 317 316 315 315 314 314 314 316 317 318 320 320 319 319 319 319 320 320 316 311 308 305 305 305 305 306 306 307 308 308 309 310 311
256 255 255 255 255 256 256 256 256 256 255 253 251 249 248 248 249 249 249 250 252 253 255 256 257 258 259 260 262 264 267 269 272 275 278 282 286 290 294 297 301 305 307 308 309 312 315 317 319 322 324 325 324 322 320 318 317 315 314 313 311 311 311 312 312 313 314 313 313 313 313 315 317 314 309 305 303 303 303 304 305 306 306 307 307 307 307 308
261 260 259 258 258 258 258 258 258 257 256 255 253 252 251 250 250 250 251 251 252 254 255 256 257 258 259 260 262 263 265 268 269 272 275 279 284 287 291 295 298 302 304 305 306 308 312 315 317 320 323 324 323 320 318 317 317 316 314 313 310 308 307 307 307 307 308 308 308 308 307 310 313 310 306 303 302 302 302 304 305 306 306 307 307 307 307 307
266 265 265 264 264 263 262 261 261 260 258 257 255 254 253 253 252 252 252 253 253 254 256 257 258 258 259 260 261 263 265 266 268 270 273 277 282 286 289 292 296 299 302 303 304 306 310 313 314 317 321 323 321 318 316 316 316 316 314 313 311 309 306 304 302 301 302 304 305 304 303 306 309 307 305 303 302 303 303 303 304 306 307 307 307 307 308 308
269 269 269 269 269 269 268 266 266 264 263 260 258 257 255 255 254 255 255 255 255 255 256 257 259 259 259 260 261 263 265 266 267 269 272 276 280 285 288 291 294 297 300 301 302 305 309 311 312 313 318 322 321 316 314 314 315 315 314 313 312 311 308 305 302 300 299 299 300 300 299 302 305 304 302 301 302 303 303 303 304 306 307 307 307 307 308 310
270 270 270 271 271 271 271 271 270 269 267 265 262 260 259 257 257 256 257 257 257 257 257 258 259 260 260 261 261 263 265 266 267 269 271 274 279 284 287 290 292 295 297 299 301 303 306 309 310 310 314 320 320 316 312 312 313 313 313 312 311 311 310 307 305 302 300 298 298 298 298 300 302 301 299 299 300 300 300 301 303 305 306 306 306 307 308 308
270 270 270 270 270 271 272 272 272 272 271 269 266 264 262 260 259 259 259 259 259 259 259 259 260 260 261 262 262 263 265 266 268 269 270 274 278 282 286 289 292 294 296 297 299 301 304 306 308 309 311 316 318 315 311 309 310 311 312 312 310 310 310 309 307 305 304 302 301 302 301 302 303 302 301 301 301 300 300 301 303 304 304 305 305 306 306 306
271 271 270 270 270 271 271 271 272 272 272 271 270 267 265 264 262 261 261 261 260 260 260 261 261 261 262 262 263 264 265 266 268 270 271 273 277 281 285 288 290 293 295 297 298 298 301 303 306 307 308 312 315 314 309 306 307 309 310 310 309 308 309 309 308 307 307 306 306 308 307 306 306 305 304 305 305 304 304 304 305 305 305 304 304 305 305 305
273 272 272 271 270 270 270 270 271 271 271 272 271 270 268 267 266 264 263 263 262 262 262 262 262 263 263 263 263 264 265 267 269 271 272 274 277 280 283 287 290 292 294 296 297 297 298 300 303 304 304 307 311 312 309 304 304 305 306 306 307 307 307 308 309 308 307 307 309 311 310 307 308 308 308 308 307 306 305 306 306 306 306 305 305 306 306 306
276 275 274 273 271 271 270 270 270 270 271 271 272 272 271 270 269 268 266 265 264 264 264 263 263 263 264 264 264 264 265 267 268 270 272 274 277 279 282 286 289 292 294 296 296 296 297 299 301 301 301 303 307 310 308 304 301 302 302 302 303 304 305 307 309 309 307 307 308 312 312 309 307 309 309 308 306 305 305 306 307 306 306 306 306 307 306 305
279 278 277 275 274 272 271 270 270 270 270 271 271 272 272 272 272 271 270 269 267 266 265 264 264 264 264 265 265 265 266 267 269 271 272 274 277 279 282 285 288 291 294 295 295 296 296 297 299 299 299 299 304 307 306 304 300 298 299 299 299 300 300 302 305 307 306 305 306 310 314 312 310 309 308 307 307 306 306 306 306 307 307 306 307 307 306 306
281 281 280 279 278 275 273 272 271 270 271 271 271 272 272 273 273 273 272 271 270 268 267 265 265 264 264 265 266 266 267 268 269 271 273 275 277 279 282 284 287 291 293 294 295 295 295 296 297 297 297 297 300 304 305 303 300 297 297 297 297 297 297 298 302 303 303 303 303 307 312 313 311 310 309 308 306 306 306 306 308 310 311 310 309 308 308 308
279 281 282 282 281 279 277 275 273 271 270 270 270 271 272 272 273 273 274 273 272 271 269 267 266 265 264 265 267 267 268 269 270 272 274 276 278 279 281 284 287 290 292 293 294 295 294 294 295 295 295 294 297 301 303 302 300 296 295 296 296 296 296 297 300 300 299 300 301 304 309 310 310 311 310 308 306 305 305 307 310 312 312 311 310 309 308 307
275 277 280 282 283 282 281 279 277 274 272 271 270 270 270 270 271 272 274 274 274 273 271 269 267 266 265 266 267 268 269 270 271 273 274 276 278 279 282 285 288 290 292 292 293 293 293 292 293 293 293 292 294 299 301 300 299 296 293 294 294 294 294 295 297 298 296 296 297 301 308 309 308 311 310 309 308 306 307 308 311 311 310 309 308 308 307 305
273 274 276 279 281 281 281 281 281 279 277 274 273 272 270 270 270 271 272 274 274 274 273 271 269 267 266 267 268 269 270 271 272 273 275 277 278 280 283 286 288 290 291 292 291 292 291 290 291 291 291 291 293 297 298 298 297 295 293 292 292 292 291 293 294 295 294 292 293 298 307 309 308 309 308 308 308 307 308 311 311 309 308 306 306 306 305 304
272 274 275 276 277 278 280 282 282 281 280 278 276 274 273 271 271 271 271 273 274 273 273 272 270 268 267 267 268 269 271 271 272 274 275 277 279 281 284 287 289 290 291 290 290 291 289 289 289 289 290 290 292 295 297 296 295 294 292 291 291 291 291 291 292 294 291 288 290 295 305 310 308 307 305 306 307 307 309 311 310 309 308 307 306 305 305 304
272 274 274 275 275 277 279 280 281 281 280 279 278 277 275 274 272 272 271 271 274 274 273 272 270 269 268 267 268 269 270 271 273 274 276 278 280 282 285 287 288 289 289 289 289 289 288 288 288 288 289 289 290 294 295 296 294 293 292 291 291 291 291 290 290 292 290 287 286 289 299 307 307 307 304 305 308 306 309 311 309 308 308 307 307 306 306 305
272 273 274 274 274 275 277 278 279 279 279 279 279 279 278 276 274 273 272 271 273 275 274 272 271 269 268 267 267 267 269 271 272 274 276 278 280 283 285 286 287 287 287 287 287 288 287 287 287 287 287 288 290 292 294 295 294 293 292 291 291 291 292 290 288 288 288 288 286 286 290 300 307 307 303 306 307 306 310 311 308 308 307 307 308 308 308 307
271 272 273 273 274 274 275 276 277 277 277 278 278 278 278 278 276 274 273 271 272 274 274 273 273 270 268 266 266 266 267 269 271 273 275 277 279 282 283 284 285 285 285 285 286 287 286 286 287 286 286 287 288 291 293 294 294 293 292 292 292 292 292 292 290 288 286 286 288 288 284 292 307 305 302 304 303 304 310 310 307 307 306 308 310 310 309 308
271 271 271 272 273 274 274 274 274 275 275 276 276 277 277 277 276 275 274 272 273 275 274 275 273 271 269 267 266 266 267 268 270 272 274 276 279 280 282 283 283 283 284 284 285 285 284 285 286 286 286 286 287 290 292 293 293 293 292 293 294 293 292 293 292 291 288 286 289 289 285 287 303 303 302 302 300 303 309 308 305 306 307 310 311 310 309 308
271 271 271 271 272 273 273 273 273 273 273 274 275 275 275 276 276 275 274 273 275 277 276 276 273 269 268 268 268 268 268 269 271 272 274 276 278 279 281 281 281 282 282 282 284 283 283 284 285 285 286 286 287 290 291 292 293 293 293 294 295 294 295 294 293 293 291 290 292 290 289 290 299 303 302 299 299 303 307 305 304 305 308 310 310 309 308 307
271 271 271 271 272 272 272 272 273 273 272 273 273 273 274 274 274 274 274 273 276 278 278 275 271 270 268 268 269 270 271 272 273 274 276 277 278 279 280 280 280 280 280 281 282 281 282 283 284 285 285 286 288 290 292 293 294 294 294 295 295 296 297 296 295 294 292 293 293 290 292 295 302 306 301 297 300 303 304 302 302 305 308 309 308 307 307 307
270 270 271 272 272 272 272 272 272 272 272 272 272 272 272 272 272 273 273 274 277 276 274 273 272 270 269 269 269 270 271 272 273 275 276 277 278 279 280 280 279 279 279 280 280 280 280 282 283 284 285 286 288 290 292 294 295 295 295 295 296 296 296 295 295 295 294 295 294 292 294 298 304 308 302 299 302 303 302 301 302 305 307 308 307 306 306 306
270 270 271 272 272 272 272 272 271 271 271 272 271 272 271 271 272 272 273 277 276 270 269 271 272 271 270 270 271 271 272 272 273 274 275 276 278 279 279 279 278 278 278 279 279 278 279 281 283 283 284 286 288 290 293 294 295 295 295 296 295 296 295 295 296 295 295 296 295 294 296 299 305 307 301 301 303 302 300 300 301 304 306 306 305 304 305 304
269 270 272 272 272 272 272 272 271 271 271 271 271 271 271 271 271 272 276 277 272 267 268 269 270 270 271 271 272 273 273 273 274 275 275 276 277 278 278 278 278 278 278 278 278 277 279 281 283 283 284 285 287 290 292 293 294 295 295 295 295 295 294 295 296 295 296 297 297 297 298 300 306 306 302 303 303 300 298 299 300 303 304 304 303 303 303 302
268 270 271 272 273 273 273 272 272 272 271 271 270 270 271 271 272 276 277 273 269 267 267 267 267 269 271 272 273 273 274 275 275 275 275 276 277 277 278 278 279 278 278 277 277 278 279 281 283 284 285 286 289 291 291 292 293 294 295 294 294 295 294 295 295 295 295 297 297 298 299 301 306 305 303 305 302 298 298 299 300 302 303 303 302 303 302 302
265 267 269 271 272 273 273 273 272 272 272 271 271 271 271 271 274 277 275 272 270 267 266 266 267 268 269 271 273 273 274 274 274 274 274 275 276 276 277 278 278 279 278 277 277 278 279 282 285 285 286 288 289 290 291 292 292 294 294 294 295 295 294 294 294 292 293 295 296 297 298 302 305 304 306 305 300 298 299 298 299 301 302 303 303 302 302 302
264 265 267 269 271 272 273 273 273 273 272 272 272 272 272 274 276 275 273 272 271 268 267 268 267 267 267 269 271 272 273 273 273 274 274 275 276 276 277 278 278 279 279 279 278 279 280 282 283 284 286 287 288 289 290 291 293 294 294 295 296 296 296 295 294 293 293 293 296 297 298 302 304 306 307 303 299 299 298 297 298 301 302 302 302 302 303 303
263 264 265 267 269 270 271 271 273 273 273 273 273 273 276 279 276 272 271 272 272 271 270 268 267 267 268 269 270 271 271 271 272 273 274 275 275 275 277 278 278 279 280 281 280 280 281 281 280 281 283 285 287 288 290 292 294 294 294 296 298 297 296 296 295 296 295 295 296 296 298 303 306 307 306 302 299 298 297 297 299 301 302 300 300 302 303 302
266 265 265 266 267 268 268 269 271 271 272 273 274 276 281 281 276 274 272 272 273 273 271 270 269 270 270 270 270 271 271 272 272 273 274 274 274 276 277 278 279 280 281 282 282 282 281 280 279 280 281 283 286 287 290 293 294 294 296 298 298 296 296 296 296 296 296 296 296 298 299 303 307 306 304 301 299 297 296 298 299 300 299 298 300 302 303 302
268 268 268 267 267 266 267 267 268 269 270 272 274 278 281 279 278 277 274 271 271 271 271 271 272 272 271 271 271 272 272 273 274 274 274 274 275 277 278 279 280 281 281 281 282 282 282 280 279 280 282 284 286 289 292 293 292 295 298 298 296 295 295 295 295 297 297 296 297 299 299 303 308 305 302 299 297 296 297 298 299 299 298 298 301 302 303 302
269 269 270 270 269 267 266 266 266 268 268 271 276 279 278 276 277 277 275 273 271 271 272 273 273 272 272 273 273 273 274 275 275 275 275 276 276 278 279 279 280 280 280 280 281 282 281 280 280 282 284 285 288 291 292 292 293 296 297 296 295 294 294 295 296 298 297 296 298 299 299 305 309 306 304 301 298 299 300 299 299 300 299 300 302 303 303 302
269 269 271 271 270 269 268 267 266 266 268 272 277 276 274 274 275 275 275 275 275 274 274 274 274 273 273 273 273 273 274 275 275 275 275 277 278 280 279 279 278 278 278 278 279 280 280 280 281 283 285 288 291 292 292 293 295 296 295 293 293 294 295 296 298 299 298 298 299 299 300 306 309 305 304 301 300 301 300 299 301 301 301 302 303 304 303 303
270 270 270 271 271 270 270 268 267 267 270 273 274 274 275 275 273 273 274 275 275 276 276 276 275 275 275 275 274 274 273 273 274 275 276 278 279 279 279 278 278 277 277 277 278 279 280 281 282 284 287 290 291 292 293 295 295 294 293 292 293 294 295 297 297 298 298 298 300 300 300 305 308 303 301 301 301 301 300 300 302 302 303 304 304 304 304 304
270 270 271 271 270 270 270 269 269 270 271 273 275 276 276 274 272 271 272 273 274 275 276 276 276 277 277 276 276 275 274 274 275 276 277 279 279 279 279 278 277 276 277 277 278 280 281 282 284 287 289 290 291 292 293 294 293 292 291 292 294 295 296 296 296 297 298 298 301 301 299 305 309 302 300 302 301 300 300 300 302 303 304 305 305 305 305 305
267 269 270 269 269 269 269 270 271 272 273 275 275 274 272 271 271 271 271 273 274 275 276 276 276 276 276 276 277 276 276 276 276 277 279 280 280 279 278 277 277 277 278 279 280 281 282 283 286 288 289 290 291 291 291 291 290 290 290 293 295 295 296 296 296 298 297 299 302 299 297 306 309 301 301 303 301 299 299 300 302 304 305 304 304 305 305 305
266 267 267 267 268 269 270 271 272 273 274 274 272 270 270 271 271 272 273 274 274 274 274 274 275 276 276 277 276 276 277 277 278 279 280 278 278 277 278 278 278 279 280 281 281 281 282 285 287 288 289 290 290 290 289 289 288 288 290 293 294 294 295 295 296 296 297 301 301 295 297 308 306 300 302 303 300 299 299 300 303 303 303 303 304 304 305 305
265 265 265 266 267 269 270 272 273 273 272 272 271 271 271 271 271 272 272 273 272 272 273 274 275 276 276 276 276 277 278 279 279 279 277 276 276 277 278 279 279 279 279 279 280 281 283 285 286 287 288 287 288 288 288 288 287 288 291 292 292 293 294 295 295 295 298 301 296 294 301 308 303 301 304 302 299 299 300 302 302 302 302 304 304 304 305 305
265 265 265 266 267 268 269 271 272 272 271 271 270 270 270 270 270 270 269 270 271 272 274 275 276 275 275 275 276 277 278 278 277 275 274 276 277 277 278 278 278 278 278 278 279 281 282 283 284 285 285 285 285 287 288 286 286 288 290 290 291 293 294 294 294 296 298 296 292 296 305 303 300 303 304 300 299 300 302 303 302 302 303 303 303 304 305 305
264 264 265 266 266 267 268 268 269 270 271 271 270 269 269 269 268 267 267 269 272 274 274 274 274 274 275 277 277 276 275 275 274 273 274 276 276 276 276 276 276 276 277 278 279 280 281 281 283 284 285 285 286 286 286 285 286 287 288 289 291 293 294 294 295 296 296 293 293 301 303 298 301 306 303 299 299 301 302 303 302 303 303 302 304 305 304 305
265 265 265 265 265 265 266 266 268 269 270 269 269 268 268 267 267 268 269 271 272 272 271 271 273 274 276 277 277 275 274 273 273 275 277 278 277 276 275 275 275 276 277 279 279 280 281 282 283 285 285 285 286 287 286 286 286 287 288 291 292 293 295 296 295 294 294 294 297 301 299 298 303 305 301 299 300 301 302 302 302 302 301 302 304 303 304 305
269 269 267 266 265 265 266 266 266 266 265 265 266 267 267 268 268 269 270 269 268 268 269 271 272 273 274 274 273 273 273 274 276 279 280 279 278 276 275 275 276 277 278 279 280 282 283 284 286 286 285 286 287 288 287 287 287 288 290 292 294 295 297 295 293 294 296 297 298 299 297 299 304 303 299 299 300 301 301 301 301 301 301 302 303 302 304 304
270 270 270 269 267 266 265 264 263 264 264 265 266 266 267 268 269 269 268 267 266 267 268 269 270 271 272 272 271 272 273 277 282 283 281 278 276 274 274 275 276 278 279 280 282 284 284 285 286 286 285 286 287 288 287 287 288 289 290 294 297 297 294 292 294 297 297 296 297 297 297 300 302 300 298 299 300 300 301 300 300 300 301 302 301 302 303 303
270 270 270 269 268 267 266 265 265 265 266 266 266 267 268 268 268 267 266 265 265 265 266 268 270 271 270 269 270 271 275 280 282 280 277 275 274 274 275 277 278 279 280 282 284 284 284 285 286 286 285 285 287 287 287 288 289 288 291 298 298 293 291 294 297 297 296 296 297 297 298 300 300 298 298 299 300 300 300 300 301 302 302 302 302 303 303 303
269 269 268 268 268 269 268 268 267 267 267 267 268 268 268 267 265 265 264 263 264 265 267 268 268 268 268 268 270 273 277 277 276 274 274 274 275 276 277 278 280 281 283 283 283 284 285 286 286 286 286 286 287 287 287 288 287 287 294 299 294 290 294 298 297 295 295 297 297 297 298 299 299 298 298 299 300 300 300 301 302 303 303 303 303 303 303 303
268 268 268 268 267 267 267 267 267 268 268 269 269 268 267 266 265 264 264 265 265 265 266 266 265 265 266 269 272 275 274 272 271 272 272 273 274 276 277 278 280 281 282 282 283 283 285 286 286 286 286 286 286 286 287 286 285 288 295 294 290 294 298 297 294 294 296 297 297 298 299 299 298 299 299 299 300 300 300 302 303 303 302 303 303 303 303 303
Height
10851 10851 10851 10851 10851 10851 10851 10851 10851 10851 10851 10851 10850 10850 10850 10850 10850 10851 10851 10852 10851 10851 10851 10851 10850 10850 10849 10849 10848 10848 10847 10847 10846 10845 10844 10843 10841 10840 10838 10836 10835 10834 10833 10832 10830 10829 10827 10825 10823 10820 10817 10815 10814 10813 10812 10810 10809 10808 10807 10805 10803 10801 10800 10798 10795 10793 10791 10790 10790 10789 10788 10786 10785 10785 10784 10782 10782 10783 10783 10783 10782 10780 10778 10777 10775 10774 10773 10771
10849 10849 10849 10849 10849 10849 10849 10849 10848 10848 10848 10848 10848 10848 10847 10847 10848 10848 10848 10849 10849 10849 10849 10848 10848 10848 10847 10847 10846 10846 10845 10845 10844 10843 10842 10841 10840 10838 10837 10835 10833 10831 10830 10829 10828 10827 10826 10824 10822 10820 10817 10814 10812 10811 10810 10809 10808 10807 10806 10804 10802 10801 10799 10797 10795 10793 10790 10789 10788 10788 10787 10784 10782 10782 10782 10781 10780 10780 10781 10780 10779 10778 10776 10775 10773 10772 10770 10769
10846 10846 10846 10846 10846 10846 10846 10846 10846 10846 10845 10845 10845 10845 10845 10845 10845 10845 10845 10846 10846 10846 10846 10846 10845 10845 10845 10844 10844 10843 10843 10842 10842 10841 10840 10840 10838 10837 10835 10833 10831 10829 10828 10827 10826 10825 10824 10822 10822 10820 10817 10814 10812 10810 10808 10807 10806 10805 10804 10802 10801 10800 10798 10796 10794 10792 10790 10788 10787 10787 10786 10784 10781 10780 10779 10778 10778 10778 10777 10777 10776 10774 10773 10772 10771 10770 10768 10767
10842 10842 10843 10843 10843 10843 10843 10843 10843 10843 10843 10842 10842 10842 10841 10841 10841 10842 10842 10842 10843 10843 10843 10843 10843 10843 10842 10842 10842 10841 10841 10840 10840 10839 10838 10838 10837 10835 10834 10832 10830 10828 10826 10825 10824 10823 10821 10820 10818 10818 10816 10814 10811 10809 10807 10806 10804 10803 10802 10800 10799 10797 10797 10795 10793 10791 10788 10786 10785 10785 10785 10783 10780 10778 10777 10776 10775 10775 10774 10773 10772 10771 10770 10769 10768 10766 10765 10764
10838 10839 10839 10839 10839 10839 10839 10840 10840 10840 10840 10839 10839 10838 10838 10838 10838 10839 10839 10839 10840 10840 10840 10841 10841 10840 10840 10840 10839 10839 10839 10838 10837 10837 10836 10836 10835 10833 10832 10831 10829 10827 10825 10823 10821 10820 10819 10817 10815 10814 10813 10812 10810 10808 10807 10805 10803 10802 10800 10799 10797 10795 10794 10793 10791 10789 10787 10785 10783 10782 10782 10781 10779 10777 10775 10774 10773 10772 10771 10770 10769 10768 10767 10766 10764 10763 10762 10761
10835 10835 10835 10835 10836 10836 10836 10836 10836 10836 10836 10836 10836 10835 10835 10835 10835 10835 10835 10836 10836 10836 10837 10837 10838 10838 10838 10837 10837 10836 10836 10836 10835 10834 10834 10833 10832 10831 10830 10829 10827 10825 10823 10821 10820 10818 10816 10815 10813 10811 10810 10809 10807 10806 10805 10804 10802 10801 10799 10797 10795 10794 10792 10791 10790 10788 10786 10783 10781 10780 10779 10779 10778 10776 10774 10773 10772 10771 10769 10768 10767 10766 10764 10763 10761 10760 10759 10758
10832 10831 10832 10832 10832 10832 10832 10832 10833 10833 10833 10833 10833 10833 10832 10831 10831 10831 10832 10832 10832 10833 10834 10834 10835 10835 10835 10835 10835 10834 10834 10833 10833 10832 10831 10831 10830 10829 10828 10827 10825 10823 10822 10820 10818 10817 10815 10813 10812 10810 10808 10806 10804 10803 10802 10801 10800 10799 10797 10796 10794 10792 10790 10789 10787 10786 10784 10782 10780 10778 10777 10776 10776 10774 10773 10772 10771 10769 10768 10767 10765 10763 10762 10760 10759 10758 10757 10756
10828 10828 10828 10829 10829 10829 10829 10829 10829 10829 10829 10830 10830 10830 10829 10828 10828 10828 10828 10829 10829 10829 10830 10831 10831 10832 10832 10832 10832 10832 10831 10831 10830 10830 10829 10828 10827 10827 10826 10825 10823 10821 10820 10818 10817 10815 10814 10812 10811 10809 10806 10803 10801 10799 10798 10797 10796 10795 10794 10793 10792 10790 10788 10787 10785 10784 10782 10780 10778 10776 10774 10774 10773 10772 10771 10769 10768 10767 10765 10764 10763 10761 10759 10758 10757 10756 10754 10753
10826 10826 10826 10826 10826 10826 10826 10826 10826 10826 10826 10826 10827 10826 10826 10826 10825 10825 10825 10825 10826 10826 10826 10827 10828 10828 10829 10829 10829 10829 10829 10828 10828 10827 10826 10825 10825 10824 10823 10822 10821 10819 10817 10816 10814 10813 10812 10810 10809 10807 10805 10801 10799 10797 10795 10794 10792 10791 10790 10790 10789 10788 10787 10785 10784 10782 10780 10778 10776 10774 10772 10771 10771 10770 10768 10766 10765 10763 10762 10761 10760 10758 10757 10755 10754 10753 10751 10749
10823 10823 10823 10823 10823 10824 10823 10823 10823 10823 10823 10823 10823 10823 10823 10823 10822 10821 10822 10822 10823 10823 10823 10824 10825 10825 10825 10826 10826 10826 10825 10825 10825 10824 10823 10822 10821 10821 10820 10819 10818 10816 10815 10813 10811 10810 10809 10808 10806 10805 10803 10800 10798 10795 10793 10791 10789 10788 10787 10786 10785 10785 10784 10783 10782 10781 10779 10777 10774 10771 10768 10768 10768 10767 10765 10762 10760 10759 10758 10757 10755 10754 10753 10751 10750 10749 10747 10745
10820 10820 10820 10820 10821 10821 10821 10821 10820 10820 10820 10820 10820 10820 10820 10820 10819 10818 10818 10819 10819 10820 10820 10820 10821 10821 10822 10822 10822 10822 10822 10822 10821 10820 10820 10819 10818 10817 10816 10816 10815 10814 10812 10810 10809 10807 10806 10805 10804 10803 10802 10799 10796 10794 10791 10789 10787 10785 10783 10782 10782 10781 10780 10780 10779 10778 10777 10775 10773 10770 10765 10765 10766 10763 10761 10759 10757 10755 10753 10751 10750 10749 10747 10746 10745 10744 10743 10741
10818 10817 10817 10817 10817 10817 10817 10817 10817 10817 10817 10817 10817 10816 10817 10817 10816 10815 10815 10816 10816 10816 10817 10817 10817 10818 10818 10818 10819 10819 10818 10818 10817 10817 10816 10815 10815 10814 10813 10812 10811 10810 10809 10808 10806 10804 10803 10801 10800 10799 10799 10797 10795 10792 10790 10787 10785 10783 10781 10779 10778 10778 10777 10776 10775 10774 10773 10772 10770 10767 10762 10762 10763 10760 10758 10756 10754 10753 10750 10748 10747 10745 10743 10741 10740 10739 10738 10736
10814 10814 10814 10813 10813 10813 10813 10813 10813 10813 10813 10813 10813 10813 10813 10813 10813 10813 10812 10812 10813 10813 10813 10814 10814 10814 10814 10814 10815 10815 10815 10814 10814 10813 10812 10812 10811 10810 10809 10808 10807 10807 10806 10805 10803 10802 10800 10798 10796 10795 10795 10794 10793 10790 10788 10785 10783 10781 10778 10776 10774 10774 10774 10773 10771 10770 10769 10768 10767 10765 10759 10757 10758 10757 10754 10753 10751 10749 10747 10745 10743 10741 10739 10737 10735 10734 10733 10732
10810 10810 10809 10809 10809 10809 10809 10808 10808 10808 10808 10808 10809 10809 10808 10809 10809 10809 10809 10809 10809 10809 10810 10810 10810 10811 10810 10810 10810 10811 10811 10810 10810 10809 10809 10808 10807 10807 10806 10805 10804 10803 10802 10801 10800 10799 10798 10795 10793 10791 10790 10790 10789 10788 10786 10784 10781 10779 10776 10774 10772 10770 10770 10769 10768 10766 10765 10764 10763 10762 10757 10753 10753 10753 10751 10748 10746 10744 10742 10740 10738 10736 10734 10732 10730 10730 10729 10727
10805 10805 10805 10805 10805 10805 10804 10804 10803 10803 10803 10803 10804 10804 10804 10804 10805 10805 10806 10806 10806 10806 10806 10807 10807 10807 10807 10806 10807 10807 10807 10806 10806 10805 10804 10804 10803 10803 10802 10801 10800 10799 10798 10797 10796 10795 10794 10793 10791 10788 10787 10786 10785 10784 10783 10781 10779 10777 10774 10772 10770 10768 10766 10766 10765 10763 10761 10760 10759 10759 10755 10750 10749 10748 10746 10744 10741 10739 10737 10735 10734 10732 10729 10727 10726 10725 10724 10722
10801 10801 10801 10800 10800 10800 10799 10799 10799 10798 10798 10798 10799 10800 10800 10800 10800 10801 10801 10801 10802 10802 10803 10803 10803 10804 10803 10802 10802 10803 10803 10802 10802 10801 10800 10800 10799 10798 10798 10797 10796 10795 10794 10793 10792 10791 10790 10790 10788 10785 10784 10782 10781 10780 10779 10778 10776 10774 10771 10769 10767 10766 10764 10762 10761 10760 10758 10756 10755 10755 10752 10747 10745 10744 10741 10740 10737 10734 10732 10731 10729 10727 10725 10723 10721 10720 10719 10717
10797 10797 10796 10796 10796 10795 10795 10795 10794 10794 10793 10794 10794 10795 10795 10795 10796 10797 10797 10797 10797 10797 10798 10798 10798 10800 10799 10797 10798 10798 10798 10798 10797 10797 10796 10796 10795 10794 10793 10792 10791 10790 10789 10788 10787 10786 10785 10785 10784 10782 10780 10778 10777 10776 10775 10773 10771 10770 10769 10766 10764 10762 10761 10760 10758 10757 10755 10752 10750 10751 10748 10743 10741 10740 10738 10736 10733 10729 10727 10726 10725 10723 10721 10719 10717 10715 10713 10711
10793 10793 10792 10792 10792 10791 10790 10790 10790 10789 10789 10789 10790 10790 10791 10791 10791 10792 10792 10793 10792 10793 10793 10793 10794 10795 10794 10793 10793 10793 10793 10793 10792 10792 10791 10791 10791 10790 10789 10788 10787 10786 10784 10783 10782 10781 10780 10779 10779 10777 10775 10774 10773 10772 10771 10769 10767 10766 10765 10763 10761 10758 10757 10756 10756 10754 10752 10749 10746 10747 10746 10740 10736 10736 10735 10732 10728 10725 10723 10721 10720 10718 10716 10713 10711 10710 10707 10705
10789 10789 10788 10788 10788 10787 10786 10786 10785 10785 10784 10784 10785 10785 10785 10786 10787 10787 10788 10788 10788 10788 10788 10788 10789 10790 10789 10788 10788 10788 10788 10788 10787 10787 10786 10786 10786 10785 10784 10783 10783 10781 10780 10778 10777 10775 10774 10774 10774 10772 10771 10770 10769 10767 10766 10765 10763 10761 10760 10759 10757 10755 10752 10750 10752 10751 10750 10747 10742 10743 10744 10738 10732 10731 10730 10728 10724 10721 10719 10717 10716 10714 10711 10708 10706 10705 10703 10700
10785 10785 10784 10784 10784 10783 10782 10782 10781 10781 10780 10779 10780 10780 10780 10781 10782 10783 10783 10783 10783 10783 10783 10784 10784 10784 10784 10783 10783 10783 10782 10782 10782 10781 10781 10781 10781 10780 10779 10779 10778 10776 10775 10773 10772 10771 10769 10768 10768 10767 10766 10765 10764 10762 10761 10760 10759 10756 10755 10754 10752 10752 10749 10745 10746 10747 10746 10745 10740 10739 10741 10736 10730 10727 10725 10723 10720 10717 10715 10714 10712 10709 10706 10704 10702 10700 10698 10695
10780 10780 10780 10780 10779 10779 10778 10778 10777 10777 10776 10774 10775 10776 10776 10776 10777 10779 10779 10778 10778 10779 10778 10778 10779 10779 10779 10778 10778 10777 10777 10776 10775 10775 10776 10776 10775 10775 10774 10774 10773 10771 10770 10768 10767 10766 10763 10763 10763 10761 10760 10759 10759 10758 10757 10755 10754 10752 10751 10750 10748 10747 10746 10743 10741 10742 10742 10742 10739 10736 10738 10735 10727 10723 10719 10717 10715 10711 10710 10709 10707 10704 10701 10699 10697 10696 10693 10690
10775 10776 10776 10775 10774 10774 10774 10774 10773 10773 10772 10770 10770 10771 10771 10772 10773 10774 10775 10774 10773 10773 10773 10773 10774 10774 10774 10774 10772 10771 10771 10769 10769 10770 10770 10770 10769 10769 10769 10768 10767 10766 10764 10763 10762 10760 10757 10757 10757 10756 10755 10754 10753 10752 10752 10751 10749 10746 10745 10745 10744 10741 10742 10740 10736 10738 10737 10737 10736 10733 10735 10734 10726 10719 10712 10711 10710 10705 10705 10704 10701 10698 10695 10694 10692 10690 10688 10685
10771 10771 10771 10770 10770 10770 10770 10769 10769 10768 10767 10766 10765 10766 10767 10768 10768 10769 10770 10771 10769 10768 10769 10769 10769 10770 10769 10768 10767 10766 10765 10763 10764 10764 10763 10764 10763 10763 10763 10761 10761 10760 10759 10758 10757 10755 10751 10751 10752 10750 10748 10748 10747 10746 10746 10746 10743 10740 10739 10740 10739 10735 10737 10737 10733 10733 10731 10731 10732 10730 10733 10733 10726 10718 10706 10704 10704 10698 10700 10700 10694 10693 10690 10688 10687 10684 10682 10679
10766 10766 10766 10765 10764 10766 10766 10765 10764 10763 10762 10761 10760 10761 10762 10763 10764 10764 10765 10767 10767 10764 10762 10763 10764 10765 10764 10762 10760 10760 10759 10758 10759 10758 10757 10758 10757 10757 10757 10755 10755 10754 10753 10753 10752 10750 10746 10745 10747 10744 10742 10741 10740 10739 10740 10741 10738 10734 10732 10733 10734 10731 10730 10731 10730 10730 10728 10726 10725 10723 10730 10733 10727 10718 10703 10699 10697 10691 10695 10694 10687 10686 10684 10683 10682 10678 10675 10671
10760 10761 10760 10759 10759 10760 10761 10760 10759 10757 10757 10757 10756 10756 10757 10758 10758 10759 10759 10763 10766 10761 10757 10759 10760 10759 10758 10755 10753 10753 10754 10753 10753 10752 10752 10752 10751 10751 10750 10749 10749 10747 10747 10747 10746 10745 10740 10738 10740 10738 10736 10734 10733 10733 10733 10735 10733 10729 10725 10725 10728 10726 10724 10724 10723 10726 10725 10723 10720 10712 10720 10733 10730 10718 10704 10696 10691 10687 10690 10687 10679 10677 10677 10676 10676 10672 10668 10664
10754 10755 10754 10754 10754 10754 10755 10755 10753 10752 10752 10751 10752 10752 10752 10753 10753 10754 10754 10758 10764 10759 10753 10755 10755 10753 10751 10746 10746 10748 10749 10748 10748 10747 10746 10746 10746 10745 10744 10743 10742 10741 10741 10740 10741 10739 10733 10732 10732 10730 10730 10728 10726 10727 10726 10727 10728 10725 10720 10718 10720 10719 10719 10718 10715 10719 10718 10720 10720 10703 10705 10729 10731 10717 10705 10693 10685 10683 10685 10680 10672 10669 10669 10670 10668 10664 10661 10657
10748 10748 10748 10749 10749 10748 10749 10749 10747 10746 10746 10746 10747 10747 10747 10748 10749 10749 10749 10753 10762 10757 10750 10750 10748 10746 10744 10739 10739 10742 10742 10743 10742 10742 10741 10740 10740 10739 10739 10737 10735 10735 10734 10733 10735 10731 10727 10727 10725 10722 10723 10720 10719 10720 10720 10720 10720 10720 10715 10713 10713 10711 10712 10711 10709 10711 10709 10715 10719 10697 10692 10718 10728 10716 10703 10689 10681 10680 10678 10671 10664 10662 10662 10662 10660 10657 10653 10650
10742 10741 10741 10743 10743 10742 10742 10743 10742 10740 10740 10741 10742 10742 10743 10744 10744 10745 10744 10750 10758 10756 10747 10743 10739 10739 10738 10734 10735 10735 10736 10736 10736 10736 10735 10733 10733 10732 10732 10730 10728 10728 10726 10727 10729 10724 10721 10722 10719 10716 10716 10713 10713 10713 10713 10713 10713 10713 10710 10707 10706 10704 10704 10703 10702 10702 10700 10708 10712 10693 10685 10704 10718 10714 10697 10684 10679 10676 10672 10662 10656 10655 10655 10654 10652 10649 10646 10642
10735 10734 10734 10736 10737 10735 10735 10736 10736 10733 10734 10736 10736 10736 10737 10738 10740 10741 10742 10748 10754 10750 10743 10736 10733 10732 10730 10729 10730 10730 10730 10730 10729 10730 10728 10726 10726 10726 10725 10723 10720 10720 10719 10720 10721 10717 10715 10715 10713 10710 10709 10707 10706 10706 10706 10706 10706 10705 10703 10701 10699 10698 10697 10695 10696 10694 10692 10700 10701 10689 10685 10692 10706 10708 10689 10677 10675 10670 10664 10655 10648 10649 10648 10647 10644 10641 10639 10635
10729 10728 10727 10729 10730 10728 10727 10728 10729 10727 10728 10729 10730 10731 10731 10734 10736 10737 10741 10747 10745 10741 10737 10732 10728 10725 10723 10723 10724 10724 10725 10724 10723 10723 10722 10720 10720 10720 10718 10715 10712 10712 10712 10712 10712 10710 10708 10709 10707 10704 10702 10701 10700 10700 10699 10698 10698 10697 10695 10693 10691 10690 10690 10688 10689 10685 10684 10693 10691 10683 10683 10683 10694 10699 10683 10674 10670 10660 10654 10647 10642 10643 10642 10640 10637 10634 10632 10628
10722 10721 10721 10723 10723 10721 10720 10720 10720 10720 10721 10722 10723 10724 10726 10729 10732 10735 10742 10740 10734 10733 10731 10725 10721 10718 10718 10718 10718 10718 10718 10717 10717 10716 10715 10714 10714 10714 10711 10707 10704 10702 10704 10704 10703 10703 10703 10702 10700 10697 10695 10694 10694 10694 10693 10691 10690 10689 10687 10685 10683 10682 10681 10681 10682 10677 10676 10683 10681 10677 10679 10678 10685 10686 10675 10670 10663 10650 10643 10638 10635 10636 10636 10634 10631 10628 10626 10621
10715 10715 10715 10715 10715 10714 10712 10712 10711 10712 10714 10714 10714 10717 10720 10723 10730 10736 10737 10730 10725 10727 10722 10716 10716 10714 10713 10714 10713 10712 10711 10711 10710 10708 10708 10708 10709 10708 10704 10700 10695 10692 10696 10697 10693 10695 10698 10696 10693 10690 10688 10686 10687 10686 10685 10684 10682 10681 10679 10675 10674 10673 10671 10674 10675 10670 10670 10674 10671 10670 10672 10675 10679 10675 10667 10664 10654 10641 10634 10628 10626 10630 10629 10627 10624 10622 10619 10614
10708 10708 10708 10708 10709 10707 10704 10704 10703 10704 10705 10705 10706 10710 10713 10719 10730 10734 10728 10720 10717 10718 10714 10710 10711 10710 10708 10709 10707 10706 10705 10704 10702 10701 10701 10702 10703 10702 10697 10693 10687 10682 10684 10687 10686 10688 10691 10693 10688 10681 10680 10680 10679 10678 10676 10676 10674 10673 10671 10665 10664 10662 10658 10664 10666 10662 10665 10669 10665 10662 10663 10669 10673 10668 10662 10657 10644 10633 10626 10619 10617 10622 10621 10618 10616 10614 10611 10607
10701 10701 10701 10702 10702 10699 10696 10695 10696 10696 10696 10696 10698 10702 10707 10718 10728 10726 10718 10712 10707 10707 10708 10706 10705 10704 10704 10704 10702 10700 10697 10696 10695 10694 10693 10695 10697 10695 10691 10686 10679 10674 10672 10674 10677 10680 10684 10690 10684 10674 10674 10674 10672 10671 10668 10667 10666 10665 10662 10657 10656 10652 10644 10647 10652 10652 10655 10662 10664 10656 10653 10660 10664 10661 10656 10647 10636 10626 10618 10611 10609 10613 10612 10608 10606 10605 10603 10599
10693 10693 10693 10694 10694 10691 10687 10686 10688 10688 10687 10688 10690 10695 10707 10717 10718 10713 10709 10705 10699 10699 10700 10697 10697 10698 10700 10700 10698 10695 10690 10688 10689 10687 10687 10689 10689 10688 10686 10680 10672 10666 10664 10661 10664 10669 10675 10682 10679 10670 10669 10669 10666 10665 10661 10659 10657 10654 10652 10650 10648 10643 10634 10631 10635 10640 10640 10647 10658 10653 10647 10652 10654 10652 10648 10636 10627 10619 10610 10606 10603 10604 10603 10597 10596 10597 10594 10590
10684 10685 10686 10688 10686 10680 10676 10678 10680 10679 10679 10680 10682 10694 10708 10710 10705 10703 10702 10697 10692 10690 10688 10687 10690 10692 10693 10694 10692 10688 10683 10681 10683 10682 10682 10682 10681 10683 10681 10674 10666 10661 10656 10650 10649 10655 10662 10669 10670 10664 10664 10665 10661 10658 10657 10653 10647 10643 10645 10644 10638 10633 10626 10619 10620 10628 10626 10627 10643 10646 10641 10646 10647 10644 10641 10628 10618 10611 10604 10600 10598 10596 10593 10588 10587 10588 10586 10581
10675 10677 10680 10682 10677 10669 10667 10669 10669 10670 10671 10671 10678 10695 10703 10700 10697 10694 10691 10688 10683 10679 10677 10680 10685 10685 10685 10686 10685 10681 10675 10674 10677 10675 10673 10673 10675 10680 10676 10668 10662 10656 10649 10641 10638 10643 10646 10652 10660 10658 10657 10659 10656 10654 10653 10647 10638 10636 10639 10636 10629 10623 10618 10612 10610 10617 10615 10611 10626 10636 10633 10639 10640 10633 10632 10623 10610 10605 10600 10594 10592 10589 10583 10579 10580 10579 10576 10570
10666 10670 10674 10675 10667 10656 10655 10658 10659 10661 10661 10664 10679 10693 10694 10690 10690 10686 10680 10677 10674 10671 10671 10674 10676 10675 10676 10678 10677 10673 10667 10668 10669 10665 10664 10665 10668 10675 10671 10661 10656 10650 10642 10633 10630 10633 10631 10634 10646 10651 10649 10650 10651 10649 10645 10639 10632 10632 10632 10626 10620 10614 10610 10606 10603 10606 10604 10597 10610 10624 10626 10634 10632 10619 10617 10612 10600 10597 10593 10585 10582 10580 10574 10571 10571 10569 10564 10557
10658 10662 10668 10667 10654 10645 10645 10646 10648 10650 10652 10663 10678 10683 10682 10683 10682 10677 10672 10667 10664 10663 10665 10667 10666 10664 10668 10670 10667 10665 10661 10660 10660 10656 10656 10658 10662 10667 10663 10653 10648 10643 10635 10627 10622 10624 10620 10619 10632 10643 10642 10643 10645 10641 10634 10630 10627 10625 10624 10618 10613 10607 10601 10600 10597 10596 10593 10586 10592 10603 10613 10630 10628 10610 10604 10598 10591 10589 10582 10574 10573 10569 10564 10563 10562 10558 10551 10545
10649 10653 10660 10659 10643 10635 10634 10631 10635 10643 10649 10660 10670 10670 10673 10675 10673 10669 10664 10658 10656 10656 10656 10658 10657 10655 10659 10659 10656 10656 10652 10651 10652 10648 10649 10654 10656 10658 10653 10644 10638 10632 10627 10621 10616 10615 10610 10608 10619 10633 10637 10638 10637 10631 10626 10623 10619 10615 10613 10609 10606 10601 10594 10592 10591 10591 10584 10577 10580 10580 10590 10619 10622 10601 10593 10590 10584 10580 10569 10564 10564 10558 10556 10555 10550 10545 10539 10534
10638 10642 10652 10649 10631 10624 10621 10618 10627 10638 10643 10653 10661 10661 10662 10662 10662 10661 10656 10650 10648 10647 10647 10648 10649 10648 10648 10647 10645 10644 10640 10641 10644 10642 10643 10648 10647 10646 10643 10635 10628 10621 10617 10613 10609 10607 10601 10599 10610 10624 10629 10630 10629 10624 10620 10617 10610 10604 10601 10600 10598 10593 10587 10582 10581 10587 10581 10573 10575 10562 10563 10602 10612 10587 10582 10583 10574 10567 10558 10554 10554 10550 10548 10544 10537 10533 10528 10524
10626 10633 10641 10633 10618 10614 10610 10609 10622 10630 10635 10648 10652 10648 10646 10648 10651 10652 10649 10644 10641 10640 10638 10637 10639 10638 10637 10638 10635 10632 10630 10631 10635 10635 10636 10639 10638 10633 10629 10623 10617 10612 10608 10604 10601 10597 10591 10592 10604 10615 10619 10620 10620 10618 10614 10609 10602 10595 10593 10594 10591 10584 10581 10572 10568 10575 10572 10572 10574 10549 10545 10587 10596 10571 10572 10574 10561 10553 10547 10544 10545 10542 10538 10532 10526 10523 10518 10513
10617 10622 10624 10617 10609 10606 10600 10605 10619 10623 10627 10636 10635 10632 10633 10636 10640 10643 10642 10638 10634 10632 10627 10627 10630 10628 10627 10628 10624 10622 10622 10620 10626 10630 10626 10625 10627 10622 10615 10611 10608 10603 10598 10595 10592 10586 10583 10587 10596 10603 10608 10611 10611 10611 10607 10599 10590 10586 10588 10589 10583 10578 10574 10567 10563 10561 10561 10570 10563 10532 10538 10579 10577 10556 10562 10561 10547 10540 10535 10534 10538 10532 10526 10521 10515 10511 10507 10501
10603 10604 10608 10607 10601 10596 10596 10606 10613 10610 10614 10619 10617 10621 10623 10623 10629 10634 10633 10628 10623 10621 10619 10620 10623 10620 10617 10617 10613 10614 10615 10611 10616 10619 10612 10611 10616 10614 10606 10600 10598 10594 10588 10584 10581 10577 10578 10583 10587 10591 10597 10601 10602 10602 10597 10588 10578 10578 10584 10581 10574 10572 10568 10562 10558 10551 10554 10565 10545 10519 10538 10566 10557 10545 10552 10546 10530 10526 10525 10525 10525 10520 10514 10509 10502 10498 10494 10488
10585 10587 10595 10597 10591 10588 10593 10603 10601 10595 10600 10603 10603 10609 10610 10611 10620 10624 10619 10616 10613 10613 10613 10614 10614 10609 10607 10607 10606 10607 10606 10601 10600 10601 10601 10603 10606 10606 10599 10589 10585 10582 10577 10574 10572 10570 10571 10575 10579 10581 10583 10587 10592 10592 10584 10575 10569 10571 10576 10573 10566 10566 10561 10555 10550 10545 10546 10544 10529 10526 10537 10541 10540 10539 10534 10526 10516 10512 10516 10515 10509 10506 10501 10494 10489 10486 10481 10473
10566 10571 10583 10587 10580 10578 10585 10592 10589 10585 10589 10589 10587 10593 10596 10599 10608 10609 10605 10607 10610 10608 10604 10603 10602 10598 10599 10600 10598 10596 10593 10589 10583 10584 10594 10599 10596 10595 10588 10578 10572 10569 10566 10566 10564 10562 10561 10565 10573 10573 10569 10572 10580 10580 10571 10562 10561 10564 10566 10565 10561 10558 10554 10549 10543 10540 10534 10517 10517 10538 10530 10515 10533 10537 10512 10504 10505 10503 10507 10504 10496 10493 10486 10480 10478 10473 10466 10460
10547 10558 10571 10573 10564 10562 10573 10581 10579 10577 10578 10573 10568 10573 10581 10587 10594 10598 10599 10602 10602 10594 10588 10591 10592 10590 10593 10592 10584 10578 10578 10575 10571 10576 10588 10590 10584 10579 10572 10565 10561 10558 10559 10556 10554 10553 10550 10556 10569 10566 10558 10560 10565 10567 10559 10550 10550 10554 10555 10557 10555 10550 10548 10543 10533 10530 10522 10503 10510 10534 10517 10500 10525 10527 10495 10487 10493 10492 10495 10492 10484 10480 10473 10469 10467 10459 10453 10448
10531 10543 10553 10552 10546 10548 10561 10570 10567 10561 10557 10553 10553 10560 10569 10577 10585 10591 10592 10588 10583 10578 10576 10580 10584 10584 10584 10578 10566 10562 10564 10564 10566 10575 10579 10573 10568 10561 10553 10551 10551 10551 10551 10546 10545 10545 10539 10547 10562 10556 10546 10550 10554 10554 10547 10538 10537 10543 10547 10550 10545 10542 10541 10532 10521 10521 10514 10498 10502 10515 10505 10500 10514 10506 10483 10478 10478 10478 10482 10477 10470 10466 10462 10459 10453 10445 10441 10436
10517 10525 10530 10530 10530 10534 10541 10548 10546 10540 10540 10543 10543 10549 10560 10569 10577 10579 10575 10568 10566 10568 10565 10564 10573 10577 10571 10561 10550 10547 10555 10561 10565 10570 10565 10553 10548 10542 10535 10539 10543 10543 10542 10539 10539 10538 10529 10536 10550 10543 10533 10540 10546 10541 10533 10527 10526 10529 10539 10547 10539 10528 10525 10518 10513 10515 10505 10492 10496 10497 10492 10502 10506 10486 10472 10472 10467 10464 10466 10462 10456 10453 10450 10445 10438 10432 10428 10421
10504 10510 10512 10507 10507 10513 10519 10524 10524 10524 10530 10530 10525 10537 10553 10560 10564 10562 10553 10549 10550 10553 10551 10553 10565 10567 10554 10542 10535 10538 10556 10564 10557 10553 10546 10533 10528 10526 10523 10529 10535 10534 10534 10533 10532 10527 10520 10525 10536 10528 10518 10528 10538 10528 10517 10519 10516 10512 10531 10549 10532 10508 10506 10509 10507 10503 10491 10484 10488 10484 10481 10493 10494 10473 10462 10465 10459 10452 10451 10447 10442 10439 10434 10428 10423 10419 10414 10407
10492 10494 10494 10489 10487 10494 10498 10501 10501 10504 10511 10514 10516 10531 10539 10538 10544 10541 10529 10530 10539 10543 10543 10545 10551 10548 10533 10524 10528 10541 10557 10553 10536 10531 10528 10517 10515 10517 10516 10519 10525 10526 10526 10525 10522 10517 10512 10514 10520 10512 10502 10514 10527 10515 10506 10509 10499 10500 10529 10542 10515 10493 10496 10501 10494 10487 10481 10475 10473 10473 10473 10476 10474 10462 10455 10454 10448 10443 10440 10434 10429 10425 10418 10413 10409 10404 10398 10393
10478 10475 10478 10477 10473 10474 10477 10479 10479 10480 10490 10502 10510 10517 10515 10514 10524 10520 10508 10517 10533 10535 10529 10527 10530 10528 10518 10518 10532 10542 10541 10528 10516 10514 10513 10506 10504 10507 10508 10512 10517 10517 10516 10514 10511 10509 10505 10502 10503 10497 10488 10497 10509 10504 10497 10492 10483 10500 10527 10519 10497 10491 10491 10484 10478 10476 10474 10465 10457 10460 10463 10459 10454 10447 10442 10440 10437 10433 10429 10423 10417 10411 10405 10401 10396 10390 10385 10381